Location: Unspecified
(52.0000°N, 4.4000°E)
Time: 23:52:01
(UTC+00:00)

Cosmos 2208 Rocket - Pass Details

Date: 14 May 2025
Orbit: 752 x 801 km, 74.0° (Epoch: 22 June)

Event Time Altitude Azimuth Distance (km) Brightness Sun altitude
Exits shadow 22:08:52 26° 173° (S) 1,516 5.0 -16.5°
Maximum altitude 22:11:42 54° 108° (ESE) 961 4.2 -16.6°
Drops below altitude 10° 22:16:54 10° 32° (NNE) 2,352 7.0 -16.9°
Sets 22:19:19 0° 28° (NNE) 3,277 7.9 -17.0°
